Total_Precipitation_Accumulation
0.05 0.11 0.28 0.56 1.23 1.54 1.31 0.73 0.54 0.42 0.43 0.45 0.46 0.45 0.49 0.58 0.90 1.29 0.92 0.53 0.18 0.10 0.13 0.28 0.44 0.37 0.33 0.33 0.34 0.37 0.35 0.33 0.32 0.31 0.27 0.28 0.29 0.30 0.32 0.37 0.42 0.49 0.53 0.56 0.54 0.56 0.52 0.53 0.60
0.08 0.14 0.35 0.84 1.51 1.50 1.12 0.62 0.47 0.37 0.40 0.40 0.36 0.41 0.53 0.60 0.47 0.52 0.64 0.49 0.17 0.08 0.07 0.11 0.29 0.34 0.31 0.32 0.35 0.37 0.35 0.33 0.31 0.32 0.28 0.31 0.36 0.40 0.42 0.40 0.43 0.49 0.51 0.48 0.48 0.45 0.49 0.55 0.62
0.09 0.17 0.38 0.85 1.00 0.98 0.78 0.50 0.42 0.33 0.44 0.59 0.50 0.42 0.54 0.71 0.54 0.48 0.47 0.28 0.15 0.10 0.08 0.14 0.26 0.27 0.28 0.30 0.33 0.34 0.33 0.31 0.29 0.32 0.30 0.34 0.38 0.46 0.49 0.47 0.44 0.45 0.47 0.47 0.49 0.46 0.53 0.53 0.61
0.10 0.22 0.42 0.55 0.43 0.39 0.41 0.41 0.41 0.44 0.65 0.80 0.66 0.54 0.59 0.56 0.52 0.45 0.36 0.24 0.18 0.15 0.14 0.19 0.27 0.28 0.29 0.30 0.30 0.32 0.31 0.31 0.31 0.34 0.34 0.37 0.40 0.47 0.48 0.50 0.49 0.47 0.50 0.55 0.58 0.53 0.55 0.56 0.57
0.10 0.28 0.55 0.41 0.24 0.24 0.25 0.30 0.46 0.52 0.76 0.86 0.63 0.66 0.77 0.68 0.61 0.56 0.42 0.37 0.33 0.37 0.35 0.32 0.36 0.34 0.32 0.31 0.32 0.33 0.33 0.33 0.35 0.37 0.36 0.40 0.44 0.50 0.53 0.56 0.56 0.50 0.49 0.55 0.61 0.59 0.58 0.66 0.72
0.09 0.22 0.37 0.28 0.17 0.14 0.18 0.25 0.40 0.53 0.75 0.83 0.69 0.89 0.96 0.94 0.87 0.80 0.75 0.79 0.72 0.75 0.69 0.61 0.59 0.49 0.43 0.38 0.38 0.39 0.40 0.38 0.39 0.41 0.41 0.41 0.46 0.50 0.54 0.57 0.58 0.54 0.53 0.56 0.59 0.60 0.62 0.68 0.76
0.08 0.17 0.24 0.16 0.11 0.12 0.18 0.25 0.43 0.60 0.75 0.97 0.95 1.04 1.07 1.19 1.13 1.03 1.00 1.07 1.12 1.08 1.01 0.81 0.68 0.62 0.55 0.56 0.52 0.47 0.47 0.46 0.45 0.49 0.45 0.43 0.45 0.46 0.48 0.56 0.61 0.54 0.55 0.59 0.62 0.62 0.67 0.70 0.73
0.05 0.09 0.14 0.09 0.05 0.09 0.16 0.25 0.39 0.58 0.82 0.96 0.97 1.04 1.06 1.06 1.10 1.19 1.26 1.40 1.61 1.47 1.28 0.97 0.81 0.84 0.70 0.63 0.61 0.57 0.51 0.51 0.51 0.53 0.53 0.54 0.56 0.54 0.57 0.62 0.70 0.64 0.62 0.63 0.69 0.72 0.71 0.72 0.74
0.03 0.06 0.08 0.07 0.03 0.06 0.15 0.31 0.45 0.49 0.66 0.99 1.20 1.04 0.87 0.96 1.25 1.47 1.76 1.85 2.01 1.87 1.45 1.07 0.99 1.08 0.97 0.78 0.69 0.81 0.74 0.71 0.74 0.81 0.80 0.99 1.25 1.03 1.03 0.86 0.91 0.87 0.87 0.89 0.96 0.98 0.99 0.94 0.84
0.03 0.05 0.06 0.03 0.02 0.04 0.15 0.37 0.53 0.64 0.97 1.29 1.46 1.25 1.02 1.02 1.44 1.81 1.95 2.05 1.77 1.82 1.76 1.45 1.20 1.14 1.15 1.00 0.99 1.34 1.29 1.26 1.41 1.46 1.39 1.70 1.74 1.56 1.11 1.08 1.32 1.29 1.38 1.47 1.65 1.77 1.54 1.27 1.12
0.02 0.03 0.02 0.02 0.02 0.06 0.19 0.22 0.31 0.57 1.15 1.54 1.76 1.38 1.13 1.19 1.53 2.03 2.21 2.12 1.84 1.81 1.71 1.76 1.57 1.38 1.34 1.45 1.38 1.49 1.66 1.73 1.87 1.80 1.83 2.05 1.74 1.49 1.30 1.45 1.75 1.76 1.84 1.93 2.16 2.33 1.82 1.82 2.12
0.02 0.02 0.01 0.01 0.02 0.04 0.11 0.20 0.34 0.64 1.13 1.40 1.30 1.14 1.15 1.35 1.55 2.10 2.44 2.32 2.18 2.08 1.97 2.21 2.10 1.93 1.90 1.82 1.82 1.62 1.54 1.58 1.72 1.82 1.80 1.97 1.96 1.83 1.81 1.91 1.95 2.11 2.26 2.50 2.39 2.56 2.55 2.60 2.45
0.01 0.01 0.01 0.01 0.02 0.04 0.09 0.20 0.32 0.55 0.83 0.90 0.80 0.96 1.36 1.46 1.71 2.23 2.79 2.80 2.71 2.53 2.58 2.74 2.74 2.79 2.62 2.35 2.13 1.75 1.68 1.58 1.57 1.65 1.67 1.89 2.15 2.17 2.28 2.10 2.11 1.89 2.00 2.35 2.63 2.67 2.88 3.01 2.89
0.01 0.01 0.02 0.03 0.05 0.06 0.10 0.21 0.38 0.75 0.76 0.68 0.81 1.11 1.44 1.81 1.92 2.31 2.98 3.24 3.18 3.15 3.32 3.33 3.33 3.32 3.11 2.67 2.42 2.13 1.82 1.81 1.67 1.65 1.75 2.19 2.40 2.35 2.44 2.33 2.28 1.98 1.98 2.29 2.64 2.72 3.00 2.99 3.01
0.01 0.04 0.09 0.10 0.08 0.10 0.14 0.45 0.65 0.81 0.78 0.76 0.98 1.20 1.65 2.19 2.37 2.64 3.05 3.36 3.59 3.83 4.00 4.19 4.10 3.77 3.68 3.30 2.68 2.22 1.92 1.73 1.79 1.91 1.99 2.26 2.42 2.56 2.71 2.64 2.29 2.07 2.17 2.35 2.37 2.51 2.96 2.80 2.77
0.02 0.07 0.24 0.20 0.10 0.11 0.21 0.67 0.81 0.83 0.87 0.93 1.16 1.47 1.81 2.27 2.31 2.55 2.90 3.42 3.99 4.38 4.79 5.00 4.67 4.50 4.39 4.00 3.44 2.93 2.60 2.37 2.32 2.29 2.13 1.97 2.18 2.31 2.48 2.25 1.90 2.00 2.23 2.38 2.35 2.35 2.73 2.82 2.84
0.06 0.10 0.20 0.20 0.13 0.13 0.24 0.63 0.65 0.56 0.90 1.28 1.51 1.68 1.82 1.98 2.06 2.26 2.60 3.28 4.04 4.71 5.44 5.82 5.98 5.43 4.95 4.35 3.91 3.41 3.05 2.79 2.55 2.27 2.04 1.78 1.61 1.55 1.71 1.65 1.60 1.67 1.93 1.98 1.75 1.97 2.25 2.42 2.56
0.05 0.09 0.15 0.20 0.17 0.17 0.30 0.57 0.68 0.59 0.88 1.24 1.29 1.56 1.68 1.67 1.85 2.22 2.73 3.23 4.09 4.90 5.60 5.97 6.12 5.56 4.77 4.41 4.29 3.91 3.34 2.92 2.55 2.18 1.95 1.59 1.43 1.27 1.41 1.40 1.28 1.31 1.41 1.47 1.64 1.92 2.01 1.94 2.01
0.04 0.09 0.16 0.18 0.17 0.24 0.41 0.66 0.78 0.78 0.83 0.98 1.09 1.29 1.33 1.37 1.63 2.09 2.73 3.37 4.17 5.27 5.92 6.01 5.67 4.94 4.38 3.88 3.57 3.22 2.93 2.69 2.25 1.87 1.64 1.46 1.36 1.27 1.37 1.26 1.26 1.20 1.20 1.21 1.33 1.53 1.61 1.42 1.55
0.05 0.09 0.17 0.17 0.13 0.16 0.38 0.72 0.82 0.87 0.94 0.93 1.00 1.09 1.00 1.15 1.49 2.10 2.87 3.68 4.30 4.84 5.19 5.24 4.81 4.05 3.54 3.20 3.09 2.78 2.52 2.18 1.95 1.73 1.63 1.39 1.27 1.19 1.14 1.23 1.08 1.05 1.15 1.10 1.17 1.37 1.41 1.24 1.32
0.08 0.09 0.14 0.18 0.15 0.17 0.37 0.85 1.02 0.97 0.96 0.95 0.85 0.84 0.92 1.11 1.67 2.45 3.29 4.02 4.29 4.28 4.06 3.79 3.57 3.17 3.02 2.91 2.69 2.43 2.35 2.07 1.87 1.61 1.45 1.23 1.07 0.98 0.94 0.92 0.90 0.95 0.88 0.98 1.10 1.21 1.37 1.33 1.14
0.09 0.07 0.05 0.07 0.13 0.34 0.47 0.93 1.09 1.10 1.06 0.94 0.90 0.92 1.02 1.27 1.80 2.53 3.10 3.34 3.44 3.32 3.02 2.85 2.76 2.64 2.56 2.45 2.29 1.97 1.73 1.67 1.54 1.42 1.36 1.24 1.09 1.02 0.95 0.82 0.85 0.86 0.77 0.96 0.83 0.95 1.17 1.27 1.09
0.05 0.04 0.04 0.08 0.19 0.35 0.49 0.79 1.14 1.12 1.19 0.81 0.68 0.78 0.87 1.08 1.37 1.61 1.84 2.01 2.13 2.13 2.27 2.32 2.37 2.45 2.32 2.24 2.16 2.02 1.75 1.69 1.68 1.62 1.63 1.50 1.32 1.13 0.93 0.91 0.96 0.94 0.79 0.83 0.87 1.02 1.06 1.11 1.05
0.04 0.06 0.12 0.22 0.37 0.71 0.70 0.83 1.17 1.15 0.99 0.62 0.44 0.48 0.67 0.79 0.85 0.95 1.06 1.19 1.43 1.48 1.65 1.79 1.83 1.95 2.06 2.04 1.89 1.82 1.74 1.78 1.78 1.69 1.51 1.31 1.22 1.13 1.02 1.02 1.14 1.07 0.99 0.91 0.90 0.93 0.97 1.11 1.20
0.05 0.09 0.31 0.63 0.99 1.05 0.62 0.72 1.12 1.03 0.72 0.46 0.35 0.31 0.36 0.52 0.68 0.83 0.96 1.08 1.27 1.19 1.23 1.39 1.45 1.48 1.60 1.60 1.55 1.58 1.65 1.67 1.56 1.45 1.35 1.20 1.00 0.97 1.02 1.02 1.11 1.10 1.10 1.03 1.08 1.08 1.00 1.09 1.18
0.06 0.07 0.18 0.35 0.46 0.62 0.65 1.13 1.36 0.79 0.50 0.35 0.30 0.26 0.27 0.42 0.59 0.70 0.70 0.77 0.89 0.85 0.92 1.03 1.17 1.23 1.26 1.32 1.35 1.35 1.44 1.37 1.32 1.39 1.31 1.17 0.97 0.89 0.89 0.92 0.95 0.98 1.03 1.01 1.24 1.15 1.15 1.16 1.11
0.06 0.05 0.07 0.10 0.17 0.44 0.81 1.16 1.12 0.67 0.51 0.34 0.28 0.26 0.27 0.33 0.47 0.53 0.45 0.46 0.59 0.69 0.75 0.80 0.97 1.08 1.09 1.20 1.24 1.18 1.23 1.28 1.35 1.36 1.25 1.09 1.09 0.98 0.98 0.99 1.08 1.15 1.16 1.17 1.31 1.27 1.21 1.28 1.14
0.07 0.07 0.08 0.10 0.19 0.40 0.73 1.16 1.37 0.99 0.56 0.39 0.37 0.36 0.34 0.32 0.37 0.39 0.36 0.34 0.42 0.55 0.70 0.79 0.90 1.01 1.04 1.13 1.11 0.94 1.06 1.19 1.34 1.30 1.21 1.16 1.19 1.11 1.13 1.14 1.18 1.24 1.21 1.20 1.33 1.33 1.37 1.40 1.32
0.09 0.09 0.10 0.11 0.12 0.23 0.56 0.84 0.72 0.71 0.55 0.53 0.50 0.43 0.39 0.34 0.37 0.36 0.32 0.29 0.31 0.41 0.59 0.72 0.84 0.93 0.96 1.02 1.09 1.13 1.12 1.05 1.16 1.20 1.20 1.25 1.27 1.19 1.19 1.24 1.30 1.28 1.32 1.40 1.48 1.37 1.41 1.50 1.63
0.11 0.11 0.12 0.14 0.12 0.13 0.27 0.44 0.44 0.62 0.60 0.59 0.58 0.52 0.48 0.35 0.32 0.32 0.33 0.35 0.35 0.36 0.47 0.58 0.69 0.82 0.89 0.97 1.08 1.14 1.22 1.14 1.11 1.15 1.22 1.27 1.36 1.41 1.35 1.34 1.35 1.26 1.28 1.44 1.50 1.48 1.49 1.50 1.52